WB8ZTP Weather Reports


Display with metric or nautical units.
time (UTC)temp
F
wind
direction
speed
MPH
gust
MPH
rain 1hr
in
rain 24hr
in
rain mn
in
humidity
%
barometer
mb
20260904163021 76 158 1.0 5.0 0.00 0.00 0.00 90 1017.6
20260904161518 77 215 0.0 2.0 0.00 0.00 0.00 90 1017.8
20260904160018 77 215 0.0 0.0 0.00 0.00 0.00 90 1017.6
20260904154517 77 215 0.0 4.0 0.00 0.00 0.00 89 1018.0
20260904153015 78 337 0.0 2.0 0.00 0.00 0.00 88 1017.4
20260904151517 79 209 0.0 6.0 0.00 0.00 0.00 85 1017.7
20260904150023 79 39 0.0 3.0 0.00 0.00 0.00 87 1017.1
20260904144507 77 165 0.0 2.0 0.00 0.00 0.00 89 1017.0
20260904143004 76 165 0.0 1.0 0.00 0.00 0.00 90 1016.8
20260904141502 75 165 0.0 1.0 0.00 0.00 0.00 90 1016.8
20260904140108 75 165 0.0 0.0 0.00 0.00 0.00 91 1016.8
20260904134558 75 165 0.0 3.0 0.00 0.00 0.00 90 1016.8
20260904133054 73 164 0.0 3.0 0.00 0.00 0.00 90 1016.6
20260904131551 72 178 0.0 4.0 0.00 0.00 0.00 90 1016.8
20260904124556 71 169 0.0 1.0 0.00 0.00 0.00 90 1017.2
20260904123048 71 169 0.0 0.0 0.00 0.00 0.00 90 1017.2
20260904121547 70 169 0.0 0.0 0.00 0.00 0.00 90 1017.2
20260904120104 70 169 0.0 0.0 0.00 0.00 0.00 90 1017.1
20260904114544 69 169 0.0 0.0 0.00 0.00 0.00 90 1016.9
20260904113042 69 169 0.0 0.0 0.00 0.00 0.00 90 1016.4
20260904111542 69 169 0.0 0.0 0.00 0.00 0.00 90 1016.4
20260904110043 69 169 0.0 0.0 0.00 0.00 0.00 91 1016.4
20260904104541 69 169 0.0 0.0 0.00 0.00 0.00 90 1016.2
20260904103040 69 169 0.0 0.0 0.00 0.00 0.00 91 1016.2
20260904101542 69 169 0.0 0.0 0.00 0.00 0.00 91 1015.9
20260904100040 68 169 0.0 0.0 0.00 0.00 0.00 91 1015.9
20260904094539 69 169 0.0 0.0 0.00 0.00 0.00 91 1016.0
20260904093039 69 169 0.0 0.0 0.00 0.00 0.00 91 1015.6
20260904091537 69 169 0.0 0.0 0.00 0.00 0.00 91 1015.5
20260904090036 69 169 0.0 0.0 0.00 0.00 0.00 91 1015.4
20260904084535 69 169 0.0 0.0 0.00 0.00 0.00 91 1015.4
20260904083037 69 169 0.0 0.0 0.00 0.00 0.00 91 1015.4
20260904081542 70 169 0.0 0.0 0.00 0.00 0.00 91 1015.5
20260904080031 70 169 0.0 0.0 0.00 0.00 0.00 90 1015.4
20260904074528 70 169 0.0 0.0 0.00 0.00 0.00 90 1015.6
20260904073027 71 169 0.0 1.0 0.00 0.00 0.00 90 1015.7
20260904071526 71 169 0.0 1.0 0.00 0.00 0.00 90 1015.6
20260904070025 71 169 1.0 2.0 0.00 0.00 0.00 90 1015.7
20260904064524 71 169 1.0 4.0 0.00 0.00 0.00 90 1015.8
20260904063024 71 169 1.0 5.0 0.00 0.00 0.00 90 1015.8
20260904061537 71 157 2.0 4.0 0.00 0.00 0.00 90 1015.6
20260904060022 71 174 1.0 3.0 0.00 0.00 0.00 90 1016.0
20260904054523 71 158 1.0 3.0 0.00 0.00 0.00 90 1015.9
20260904053018 71 140 0.0 3.0 0.00 0.00 0.00 90 1016.2
20260904051516 71 140 0.0 3.0 0.00 0.00 0.00 89 1016.3
20260904050019 71 107 0.0 2.0 0.00 0.00 0.00 89 1016.5
20260904044520 71 31 0.0 1.0 0.00 0.00 0.00 89 1016.4
20260904043018 71 30 0.0 1.0 0.00 0.00 0.00 89 1016.3
20260904041510 72 30 0.0 0.0 0.00 0.00 0.00 88 1016.4
20260904040008 72 30 0.0 0.0 0.00 0.00 0.00 88 1016.4
20260904034507 73 30 0.0 0.0 0.00 0.00 0.00 87 1016.6
20260904033006 73 30 0.0 1.0 0.00 0.00 0.00 87 1016.6
20260904031506 74 30 0.0 2.0 0.00 0.00 0.00 86 1016.8
20260904030015 74 32 0.0 3.0 0.00 0.00 0.00 86 1016.8
20260904024506 75 27 0.0 3.0 0.00 0.00 0.00 84 1016.8
20260904023005 76 40 0.0 4.0 0.00 0.00 0.00 84 1016.8
20260904021508 76 40 0.0 3.0 0.00 0.00 0.00 84 1016.9
20260904020004 76 15 0.0 2.0 0.00 0.00 0.00 83 1016.5
20260904014506 77 5 1.0 6.0 0.00 0.00 0.00 83 1016.3
20260904013002 78 338 1.0 4.0 0.00 0.00 0.00 83 1016.2
20260904011503 78 9 1.0 6.0 0.00 0.00 0.00 83 1015.8
20260904010002 77 17 2.0 7.0 0.00 0.00 0.00 87 1015.8
20260904004502 77 233 0.0 2.0 0.00 0.00 0.00 87 1015.4
20260904003001 78 233 0.0 0.0 0.00 0.00 0.00 87 1015.5
20260904001601 80 233 0.0 1.0 0.00 0.00 0.00 86 1015.4
20260904000100 81 233 0.0 2.0 0.00 0.00 0.00 84 1015.6
20260903234604 83 233 0.0 1.0 0.00 0.00 0.00 82 1015.7
20260903233059 85 233 1.0 2.0 0.00 0.00 0.00 78 1015.4
20260903231606 87 233 1.0 3.0 0.00 0.00 0.00 73 1015.1
20260903230100 89 236 0.0 4.0 0.00 0.00 0.00 70 1015.0
20260903224558 89 254 1.0 4.0 0.00 0.00 0.00 70 1014.9
20260903223058 88 191 1.0 6.0 0.00 0.00 0.00 70 1015.0
20260903221558 89 236 1.0 4.0 0.00 0.00 0.00 73 1015.1
20260903220120 89 185 1.0 5.0 0.00 0.00 0.00 67 1014.9
20260903214556 90 191 3.0 7.0 0.00 0.00 0.00 63 1014.7
20260903213055 91 219 3.0 6.0 0.00 0.00 0.00 61 1014.5
20260903211602 91 194 2.0 7.0 0.00 0.00 0.00 62 1014.2
20260903210107 91 228 3.0 7.0 0.00 0.00 0.00 60 1014.0
20260903204554 92 211 4.0 7.0 0.00 0.00 0.00 58 1014.0
20260903203050 91 192 4.0 7.0 0.00 0.00 0.00 59 1014.1
20260903201549 91 233 3.0 7.0 0.00 0.00 0.00 65 1014.3
20260903200046 89 197 2.0 4.0 0.00 0.00 0.00 70 1014.7
20260903194543 85 181 0.0 3.0 0.00 0.00 0.00 77 1015.1
20260903193041 86 181 2.0 4.0 0.00 0.00 0.00 73 1015.3
20260903191550 87 155 1.0 3.0 0.00 0.00 0.00 74 1015.5
20260903190037 89 146 1.0 6.0 0.00 0.00 0.00 67 1015.9
20260903184543 89 144 2.0 5.0 0.00 0.00 0.00 70 1016.0
20260903183037 89 128 1.0 6.0 0.00 0.00 0.00 68 1016.1
20260903181535 91 179 3.0 7.0 0.00 0.00 0.00 61 1016.0
20260903180044 91 207 1.0 7.0 0.00 0.00 0.00 65 1016.2
20260903174533 91 234 3.0 7.0 0.00 0.00 0.00 61 1016.5
20260903173030 91 179 3.0 7.0 0.00 0.00 0.00 65 1016.6
20260903171528 90 236 3.0 7.0 0.00 0.00 0.00 64 1016.8
20260903170026 89 325 2.0 6.0 0.00 0.00 0.00 67 1016.8
20260903164523 88 192 3.0 7.0 0.00 0.00 0.00 67 1016.9